Location: Newark
(58.8333°N, 23.5833°E)
Time: 02:50:51
(UTC+00:00)

Transit 4A - Visible Passes

Search period start: 19 November 2019 00:00
Search period end: 29 November 2019 00:00
Orbit: 869 x 976 km, 66.8° (Epoch: 18 November)

Date Brightness Start Highest point End Pass type
(mag) Time Alt. Az. Time Alt. Az. Time Alt. Az.
19 Nov 8.8 01:51:18 42° NNE 01:51:18 42° NNE 01:56:24 10° E visible
19 Nov 7.8 03:34:50 31° NW 03:37:52 79° NE 03:43:45 10° SE visible
19 Nov 8.6 05:18:31 10° NW 05:23:50 35° WSW 05:29:04 10° S visible
20 Nov 10.2 00:17:06 17° NE 00:17:06 17° NE 00:18:26 10° ENE visible
20 Nov 8.6 02:00:38 46° NNE 02:00:38 46° NNE 02:06:02 10° E visible
20 Nov 7.7 03:44:10 31° NW 03:47:14 85° SW 03:53:06 10° SE visible
20 Nov 8.9 05:28:05 10° WNW 05:32:56 27° WSW 05:37:42 10° SSW visible
21 Nov 10.2 00:26:30 18° ENE 00:26:30 18° ENE 00:28:00 10° ENE visible
21 Nov 8.4 02:10:01 52° NNE 02:10:01 52° NNE 02:15:38 10° E visible
21 Nov 7.8 03:53:33 30° WNW 03:56:33 69° SW 04:02:21 10° SSE visible
21 Nov 9.2 05:37:47 10° WNW 05:41:58 20° WSW 05:46:04 10° SSW visible
22 Nov 10.1 00:35:55 19° ENE 00:35:55 19° ENE 00:37:37 10° ENE visible
22 Nov 8.1 02:19:27 60° NNE 02:19:27 60° NNE 02:25:12 10° ESE visible
22 Nov 8.0 04:02:59 29° WNW 04:05:48 54° SW 04:11:28 10° SSE visible
23 Nov 10.0 00:45:24 20° ENE 00:45:24 20° ENE 00:47:14 10° E visible
23 Nov 7.9 02:28:56 71° NE 02:28:56 71° NE 02:34:43 10° ESE visible
23 Nov 8.2 04:12:28 28° WNW 04:15:00 41° WSW 04:20:25 10° S visible
24 Nov 9.9 00:54:56 21° ENE 00:54:56 21° ENE 00:56:52 10° E visible
24 Nov 7.7 02:38:29 82° E 02:38:29 82° E 02:44:07 10° SE visible
24 Nov 8.6 04:22:01 25° W 04:24:08 32° WSW 04:29:12 10° S visible
25 Nov 9.9 01:04:33 21° E 01:04:33 21° E 01:06:30 10° E visible
25 Nov 7.7 02:48:06 73° S 02:48:06 73° S 02:53:26 10° SE visible
25 Nov 8.9 04:31:39 22° W 04:33:11 24° WSW 04:37:45 10° SSW visible
26 Nov 9.9 01:14:15 21° E 01:14:15 21° E 01:16:05 10° ESE visible
26 Nov 8.0 02:57:48 55° S 02:57:48 55° S 03:02:38 10° SSE visible
26 Nov 9.2 04:41:21 18° W 04:42:12 18° WSW 04:45:59 10° SSW visible
27 Nov 9.9 01:24:02 19° ESE 01:24:02 19° ESE 01:25:38 10° ESE visible
27 Nov 8.4 03:07:35 40° SSW 03:07:35 40° SSW 03:11:42 10° SSE visible
27 Nov 9.5 04:51:09 13° WSW 04:51:09 13° WSW 04:53:39 10° SW visible
28 Nov 10.0 01:33:53 17° ESE 01:33:53 17° ESE 01:35:06 10° ESE visible
28 Nov 8.9 03:17:27 28° SSW 03:17:27 28° SSW 03:20:36 10° S visible
